Location: Wesley
(43.0883°N, 93.9902°W)
Time: 05:54:04
(UTC+00:00)

Daily predictions for brighter satellites

Satellite Brightness Start Highest point End
(mag) Time Altitude Azimuth Time Altitude Azimuth Time Altitude Azimuth
ATLAS 2AS CENTAUR R/B 4.4 00:00:59 10° NNW 00:06:03 18° NNE 00:10:53 10° ENE
Cosmos 1892 3.9 00:04:09 10° NNE 00:07:16 23° ENE 00:10:21 10° SE
FALCON 9 DEB 2.9 00:04:06 10° SW 00:07:21 88° NNW 00:10:06 14° NE
Lacrosse 5 3.9 00:04:23 10° NW 00:07:50 18° N 00:11:17 10° NNE
Meteor 2-16 Rocket 4.4 00:03:59 10° N 00:10:04 68° E 00:16:07 10° SSE
Meteor 2-10 Rocket 4.4 00:06:09 10° SE 00:10:30 26° E 00:14:46 10° NE
ATLAS 5 CENTAUR R/B 4.3 00:12:03 10° NNW 00:12:41 10° NNW 00:13:20 10° NNW
USA 305 4.4 00:09:48 10° NW 00:13:18 23° NNE 00:15:47 15° ENE
SL-4 R/B 3.5 00:12:36 10° NW 00:15:22 21° N 00:17:41 13° NE
Cosmos 1300 2.7 00:13:20 10° S 00:17:08 83° W 00:20:58 10° N
Cosmos 292 Rocket 3.8 00:12:45 10° SSW 00:17:32 83° WNW 00:22:23 10° NNE
Cosmos 1408 3.9 00:16:10 10° NNE 00:18:50 19° ENE 00:18:50 19° ENE
CZ-2D R/B 3.4 00:15:14 10° SSE 00:18:53 46° ENE 00:22:33 10° N
USA 306 4.3 00:16:10 10° NW 00:19:43 24° NNE 00:21:53 17° ENE
FALCON 9 DEB 3.2 00:16:33 10° WSW 00:19:45 63° NNW 00:22:01 18° NE
COSMO-SKYMED 1 2.5 00:15:49 10° NNE 00:20:10 68° ESE 00:24:29 10° S
Cosmos 1346 Rocket 3.9 00:17:06 10° NNE 00:20:22 24° ENE 00:22:09 18° ESE
ARGOS 4.3 00:17:55 15° E 00:20:42 22° ENE 00:24:44 10° NNE
Cosmos 1315 Rocket 4.0 00:18:50 10° SE 00:21:47 20° E 00:22:02 20° E
Aureole 3 Rocket 3.0 00:19:52 10° S 00:23:33 64° E 00:28:36 10° NNE
Atlas Centaur 2 4.3 00:19:06 10° SW 00:25:52 27° SSE 00:31:38 13° ESE
Cosmos 1656 3.7 00:21:00 10° S 00:26:24 57° ESE 00:31:55 10° NNE
Okean O Rocket 3.7 00:25:13 10° SSW 00:29:04 30° W 00:32:55 10° NW
Cosmos 1689 Rocket 1.9 00:27:02 10° NNE 00:29:55 88° WNW 00:32:47 10° SSW
Cosmos 1825 4.3 00:27:49 10° NNE 00:28:26 13° NE 00:28:26 13° NE
Milstar 3 4.3 00:26:35 10° SW 00:32:01 24° S 00:36:53 11° SE
Cosmos 2227 Rocket 2.3 00:26:41 10° NNW 00:32:13 52° ENE 00:37:44 10° SE
YAOGAN 1 2.8 00:29:34 10° SE 00:33:41 46° ENE 00:37:51 10° N
GEOS 3 Rocket 4.2 00:33:12 21° E 00:36:10 39° NE 00:41:08 10° NNW
CSL-04 Rocket 4.1 00:32:07 10° SE 00:37:13 39° ENE 00:42:19 10° N
Cosmos 2263 Rocket 4.1 00:36:10 10° NNE 00:38:31 12° NE 00:38:33 12° NE
H-2A R/B 2.6 00:33:53 10° SE 00:38:51 39° ENE 00:43:54 10° N
ERS-2 4.5 00:36:48 10° NNW 00:39:50 25° WNW 00:42:51 10° SW
Cosmos 1812 Rocket 4.5 00:36:45 10° SSE 00:39:47 27° ESE 00:39:47 27° ESE
Cosmos 1340 2.6 00:39:56 10° N 00:43:43 89° W 00:47:30 10° S
S3M 3.9 00:41:22 10° S 00:47:18 57° E 00:53:19 10° NNE
Cosmos 1697 Rocket 2.9 00:42:39 10° S 00:47:56 45° ESE 00:51:31 20° NE
Geosat 4.0 00:44:17 13° NE 00:48:45 57° ESE 00:53:41 10° SSW
Cosmos 1417 Rocket 4.4 00:52:25 10° S 00:58:40 87° E 01:05:02 10° N
Okean-O 2.9 00:56:43 10° S 01:01:08 70° WSW 01:05:34 10° NNW
USA 307 3.7 00:58:45 10° NW 01:02:42 35° NNE 01:02:52 34° NNE
SL-08 ROCKET BODY 4.4 00:58:52 10° N 01:05:01 89° E 01:11:12 10° S
Cosmos 1455 2.1 01:02:19 10° S 01:05:35 62° SE 01:05:35 62° SE
USA 308 3.7 01:03:33 10° NW 01:07:30 36° NNE 01:07:30 36° NNE
Helios 1A Rocket 3.9 01:04:04 10° S 01:08:04 48° W 01:12:04 10° NNW
SeaSat 1 2.8 01:08:26 44° ENE 01:08:35 44° NE 01:13:15 10° NNW
Cosmos 1980 Rocket 3.1 01:05:14 10° S 01:08:35 29° SE 01:08:35 29° SE
Cosmos 2297 Rocket 2.6 01:06:37 10° NNW 01:12:14 64° WSW 01:17:48 10° S
CSL-04 Debris 4.1 01:11:14 10° SSE 01:16:40 87° ENE 01:22:10 10° NNW
CRYOSAT 2 4.3 01:15:50 10° N 01:20:44 86° W 01:25:34 10° S
Cosmos 2360 4.1 01:18:15 10° SSW 01:23:55 68° ESE 01:25:12 52° NE
Cosmos 220 Rocket 4.2 01:20:57 10° SSW 01:25:16 68° WNW 01:26:40 41° N
Cosmos 968 Rocket 3.8 01:20:52 10° NNW 01:26:01 63° WSW 01:29:53 17° S
CZ-4 R/B 2.9 01:23:21 10° SSW 01:26:57 35° W 01:30:31 10° NNW
SJ-11-01 4.4 01:26:46 27° S 01:29:18 72° WSW 01:34:00 10° NNW
Cosmos 2058 3.5 01:25:28 10° NNW 01:29:28 54° W 01:31:21 28° SSW
MOS 1 Rocket 3.8 01:31:54 10° N 01:36:31 62° WNW 01:41:24 10° SSW
NOSS 3-4 (A) 4.3 01:30:25 10° NNW 01:36:57 42° NE 01:37:07 42° NE
NOSS 3-4 (C) 4.3 01:30:31 10° NNW 01:37:04 41° NE 01:37:12 41° NE
Cosmos 2278 4.2 01:32:37 10° S 01:36:37 45° S 01:36:37 45° S
CZ-2C R/B 4.3 01:35:35 10° S 01:41:08 46° W 01:46:36 10° NNW
NOSS 3-3 (A) 4.0 01:38:55 10° SW 01:44:41 71° NW 01:46:52 42° NNE
NOSS 3-3 (C) 4.0 01:39:00 10° SW 01:44:48 72° NW 01:46:59 42° NNE
USA 215 3.7 01:45:28 43° NE 01:45:50 43° NNE 01:51:55 10° NW
Cosmos 2082 3.9 01:44:58 10° NNW 01:50:42 69° WSW 01:51:27 62° SSW
Lacrosse 5 3.9 01:48:52 10° NNW 01:51:33 18° N 01:51:33 18° N
Cosmos 1503 Rocket 4.3 01:47:47 10° NNW 01:52:57 62° WSW 01:53:08 62° WSW
SL-4 R/B 4.4 01:52:17 10° NW 01:53:16 17° NW 01:53:16 17° NW
CZ-4C R/B 4.0 01:52:49 10° NNW 01:57:47 28° NNE 01:57:47 28° NNE
ATLAS 2AS CENTAUR R/B 3.4 01:52:01 10° NNW 01:58:20 43° NNE 01:58:20 43° NNE
ARGOS 3.7 01:59:27 47° SW 02:00:32 56° W 02:05:54 10° NNW
Cosmos 2369 4.2 01:56:03 10° SW 02:01:40 56° WNW 02:02:57 46° NNW
BREEZE-M R/B 4.3 02:02:36 10° WNW 02:07:25 70° N 02:07:25 70° N
Atlas Centaur 2 4.0 02:07:22 10° WSW 02:14:14 33° S 02:14:14 33° S
Cosmos 2227 Rocket 4.3 02:11:30 10° NW 02:15:52 23° WSW 02:20:08 10° SSW
H-2A R/B 3.9 02:13:41 10° SSW 02:18:20 29° W 02:23:03 10° NW
Cosmos 2263 Rocket 3.9 02:17:58 10° NNW 02:20:14 24° NNW 02:20:14 24° NNW
Cosmos 1697 Rocket 4.4 02:27:13 10° WSW 02:32:05 29° NW 02:33:20 27° NNW
Cosmos 2344 3.8 09:17:24 61° NE 09:17:24 61° NE 09:23:45 10° NE
COSMOS 2406 4.4 09:38:12 37° ESE 09:38:27 38° ESE 09:43:37 10° NE
NOSS 3-2 (C) 3.8 09:48:44 56° NE 09:48:44 56° NE 09:53:46 10° NE
CZ-2C R/B 3.3 09:51:18 10° NNE 09:55:51 46° E 09:55:51 46° E
CENTAUR R/B 2.6 09:58:10 70° N 09:58:10 70° N 10:04:26 10° NE
Cosmos 1980 Rocket 4.3 09:57:57 10° N 10:02:19 23° NE 10:06:41 10° ESE
Cosmos 2279 Rocket 3.8 10:07:36 10° N 10:13:50 82° W 10:20:01 10° S
PAYLOAD A 4.0 10:09:25 10° NNE 10:14:31 82° E 10:14:31 82° E
Cosmos 1461 4.3 10:17:00 35° SE 10:17:58 40° ESE 10:22:19 10° NE
Cosmos 1626 3.9 10:18:22 23° SE 10:19:47 31° E 10:23:04 10° NNE
Cosmos 1302 Rocket 4.0 10:18:58 63° N 10:19:50 81° ENE 10:25:06 10° SSE
Cosmos 1269 Rocket 4.1 10:24:30 62° NNW 10:24:30 62° NNW 10:29:07 10° NNE
Cosmos 1484 Rocket 4.3 10:26:12 10° NNE 10:29:46 35° E 10:33:14 10° SSE
CZ-4B R/B 3.2 10:27:13 10° SE 10:30:21 33° ENE 10:32:43 15° NNE
USA 238 DEB 4.2 10:33:55 38° NW 10:34:18 38° NW 10:40:43 10° NNE
USA 238 4.2 10:34:00 38° NW 10:34:23 39° NW 10:40:50 10° NNE
Lacrosse 4 Rocket 2.8 10:38:39 27° N 10:38:39 27° N 10:40:46 10° NNE
NOSS 3-2 (A) 4.3 10:37:48 31° NW 10:37:52 31° NW 10:43:43 10° NNE
Cosmos 1833 Rocket 2.6 10:36:01 34° SSW 10:38:37 89° ESE 10:44:19 10° NNE
ATLAS 3B R/B 2.8 10:39:28 16° SSW 10:44:52 71° ESE 10:51:29 10° NE
Cosmos 44 Rocket 3.4 10:46:18 55° W 10:46:41 57° WSW 10:51:45 10° SSE
USA 234 4.5 10:45:21 10° NE 10:50:42 28° N 10:53:19 21° NW
Cosmos 1726 Rocket 4.5 10:48:11 10° N 10:52:33 50° ENE 10:56:52 10° SSE
Meteor 1-24 Rocket 4.2 10:47:42 10° S 10:53:11 62° E 10:58:56 10° NNE
Lacrosse 5 rocket 1.2 10:53:32 57° NNW 10:53:32 57° NNW 10:56:56 10° NE
Meteor 1-31 Rocket 3.6 10:50:27 10° NNE 10:54:18 51° E 10:58:07 10° S
Cosmos 2369 3.7 10:49:37 10° NNW 10:55:19 84° ENE 11:00:58 10° SSE
ADEOS Rocket 2.9 10:52:04 10° S 10:57:19 46° W 11:02:40 10° NNW
Cosmos 1992 Rocket 4.2 10:53:56 10° NNW 10:59:10 72° ENE 11:04:22 10° SSE
Cosmos 2082 Rocket 2.3 10:54:22 10° SSW 10:59:58 76° ESE 11:05:35 10° NNE
Cosmos 2228 3.0 10:56:14 10° N 11:00:37 83° E 11:05:00 10° S
Cosmos 1656 4.0 10:59:36 36° WNW 11:00:56 41° WSW 11:06:13 10° S
ISS -3.6 11:06:32 52° NNW 11:06:35 52° NNW 11:09:54 10° NE
USA 290 2.3 11:05:06 25° S 11:06:50 75° ESE 11:10:04 10° NNE
Cosmos 1606 Rocket 3.5 11:03:38 10° N 11:08:08 87° W 11:12:36 10° S
SL-16 R/B 4.4 11:04:55 10° N 11:09:26 23° NE 11:13:54 10° ESE
ALOS 2.1 11:05:49 10° N 11:10:30 78° WNW 11:15:09 10° SSW
COSMO-SKYMED 1 3.1 11:11:24 10° SSE 11:15:40 60° ENE 11:19:57 10° N
ERS-2 2.5 11:14:33 10° S 11:17:59 39° W 11:18:58 32° WNW
Cosmos 967 Rocket 4.4 11:11:53 10° NW 11:18:13 78° WSW 11:24:26 10° SSE
SAR-Lupe-4 3.4 11:15:22 10° SSE 11:18:55 84° WSW 11:22:31 10° NNW
Cosmos 1092 Rocket 3.9 11:12:57 10° S 11:19:06 81° W 11:25:23 10° N
CZ-4B R/B 3.8 11:15:46 10° N 11:19:59 78° WNW 11:23:58 10° SSW
Meteor 2-5 Rocket 3.7 11:16:12 10° SSW 11:21:48 60° WNW 11:27:34 10° N
COSMOS 2406 3.8 11:20:20 24° W 11:22:45 34° NW 11:27:54 10° N
Meteor 2-13 Rocket 4.4 11:18:03 10° SSW 11:24:09 66° W 11:30:16 10° N
Nadezhda 4 Rocket 4.2 11:18:25 10° SSW 11:24:14 46° WNW 11:30:08 10° N
Cosmos 1697 Rocket 2.9 11:18:49 10° NW 11:24:15 49° WSW 11:29:41 10° S
Cosmos 2251 Rocket 3.5 11:19:44 10° SSW 11:25:05 73° WNW 11:30:27 10° NNE
Cosmos 1400 Rocket 2.7 11:21:34 10° N 11:25:31 87° W 11:29:24 10° S
CZ-3 R/B 3.8 11:08:40 14° WSW 11:27:03 39° SSW 11:34:05 10° SE
Cosmos 220 Rocket 4.2 11:25:10 10° NNW 11:29:28 49° WSW 11:33:43 10° S
CZ-2C R/B 3.6 11:30:15 10° NNW 11:33:58 22° WNW 11:35:13 20° W
FENGYUN 3A 3.8 11:29:31 10° N 11:34:46 50° WNW 11:39:59 10° SW
deb Chang Zheng 4 3.8 11:32:22 10° N 11:36:25 45° WNW 11:40:28 10° SW
SAR-Lupe-1 4.1 11:33:20 10° S 11:36:49 52° W 11:40:20 10° NNW
TELKOM 3 4.2 11:35:26 25° W 11:37:03 50° NNW 11:40:53 10° ENE
Okean 1-7 Rocket 3.6 11:33:05 10° S 11:37:39 88° W 11:42:12 10° N
SKYMED 3 4.5 11:35:20 10° S 11:39:40 75° WSW 11:44:01 10° NNW
Cosmos 2058 Rocket 3.0 11:36:27 10° N 11:40:58 79° W 11:45:24 10° S
Cosmos 2084 3.4 11:36:58 10° SW 11:41:17 79° NW 11:45:42 10° NE
SL-14 R/B 4.2 11:41:44 10° SW 11:45:11 28° WNW 11:48:42 10° NNW
Cosmos 1300 3.3 11:42:50 10° NNW 11:46:20 34° W 11:49:48 10° SSW
H-2A R/B 4.1 11:42:33 10° NNE 11:46:42 40° E 11:50:40 10° S
Cosmos 1980 Rocket 2.2 11:41:15 10° NNW 11:46:46 61° WSW 11:52:15 10° S
Cosmos 1892 Rocket 3.8 11:45:07 10° SSW 11:49:16 45° WNW 11:53:30 10° N
CENTAUR R/B 3.9 11:45:22 14° WNW 11:49:22 24° NNW 11:55:08 10° NNE
SL-19 R/B 4.3 11:47:59 10° N 11:50:30 29° WNW 11:53:02 10° SW
SJ-12 4.0 11:46:33 10° N 11:50:35 53° WNW 11:54:33 10° SSW
Cosmos 1626 3.6 11:53:05 12° WSW 11:55:06 16° WNW 11:57:32 10° NNW
